Home   Weather   Kassala   Past weeks

Flag for Sudan Past Weather in Kassala, Sudan — Yesterday and Last 2 Weeks

Now
95 °F

Sunny.


Feels Like: 92 °F
Forecast: 70 / 100 °F
Wind: 13 mph from North

Location: Khartoum Airport

Current Time: Dec 4, 2016 at 3:24:50 pm

Latest Report: Dec 4, 2016 at 3:00 pm


Visibility: 10 mi

Pressure: 29.86 "Hg (28.23 "Hg at 506m altitude)

Humidity: 22%

Dew Point: 50 °F

Location of KassalaLocation

Past Weather in Kassala — Graph

°F

Kassala Temperature Yesterday

Maximum temperature yesterday: 93 °F (at 3:30 pm)
Minimum temperature yesterday: 68 °F (at 7:00 am)
Average temperature yesterday: 81 °F

High & Low Weather Summary for the Past Weeks

 TemperatureHumidityPressure
High99 °F (Nov 19, 3:30 pm)54% (Dec 4, 7:00 am)30.04 "Hg (Dec 4, 7:00 am)
Low66 °F (Nov 26, 7:30 am)10% (Nov 21, 3:00 pm)29.77 "Hg (Nov 20, 4:30 pm)
Average83 °F24%29.89 "Hg
* Reported Nov 19 2:00 pm — Dec 4 2:00 pm, Kassala, Weather by CustomWeather, © 2016

Note: Actual official high and low records may vary slightly from our data, if they occured in-between our weather recording intervals... More about our weather records

Advertising

Kassala Weather History for the Previous 24 Hours

Scroll right to see more
 ConditionsComfort  
Time TempWeatherWind HumidityBarometerVisibility
2:00 pm
Sun, Dec 4
95 °FSunny.14 mph20%29.89 "Hg10 mi
1:30 pm95 °FSunny.13 mph22%29.92 "Hg10 mi
1:00 pm93 °FSunny.17 mph24%29.92 "Hg10 mi
12:30 pm91 °FSunny.15 mph28%29.95 "Hg10 mi
12:00 pm90 °FSunny.15 mph33%29.95 "Hg10 mi
11:30 am84 °FSunny.13 mph43%29.98 "Hg10 mi
11:00 am84 °FWarm.15 mph43%29.98 "Hg5 mi
10:30 am82 °FWarm.13 mph45%29.98 "Hg4 mi
10:00 am81 °FWarm.17 mph48%30.01 "Hg4 mi
9:30 am81 °FWarm.15 mph48%30.01 "Hg4 mi
9:00 am77 °FWarm.10 mph54%29.98 "Hg4 mi
8:30 am77 °FWarm.9 mph54%29.98 "Hg4 mi
8:00 am77 °FWarm.9 mph54%29.98 "Hg4 mi
7:30 am77 °FWarm.10 mph54%29.95 "Hg4 mi
7:00 am77 °FWarm.9 mph54%29.95 "Hg5 mi
6:30 am79 °FClear.10 mph48%29.95 "Hg10 mi
6:00 am79 °FClear.12 mph48%29.92 "Hg10 mi
5:30 am79 °FClear.12 mph45%29.92 "Hg10 mi
5:00 am79 °FClear.10 mph45%29.92 "Hg10 mi
4:30 am79 °FClear.9 mph45%29.92 "Hg10 mi
4:00 am79 °FClear.12 mph45%29.92 "Hg10 mi
3:30 am81 °FClear.12 mph42%29.92 "Hg10 mi
3:00 am81 °FClear.13 mph42%N/A10 mi
2:30 am82 °FClear.12 mph40%29.92 "Hg10 mi
2:00 am82 °FClear.12 mph40%29.92 "Hg10 mi
1:30 am82 °FClear.12 mph32%29.92 "Hg10 mi
1:00 am82 °FClear.10 mph28%29.92 "Hg10 mi
12:30 am82 °FClear.12 mph28%29.92 "Hg10 mi
12:00 am82 °FClear.13 mph28%29.92 "Hg10 mi
11:30 pm
Sat, Dec 3
82 °FClear.12 mph30%29.92 "Hg10 mi
11:00 pm84 °FClear.12 mph31%29.92 "Hg10 mi
10:30 pm86 °FClear.13 mph38%29.92 "Hg10 mi
10:00 pm86 °FClear.15 mph38%29.92 "Hg10 mi
9:30 pm86 °FClear.15 mph38%29.92 "Hg10 mi
9:00 pm88 °FClear.12 mph38%29.95 "Hg10 mi
8:00 pm88 °FClear.10 mph35%29.92 "Hg10 mi
7:30 pm88 °FClear.7 mph33%29.92 "Hg10 mi
7:00 pm90 °FClear.12 mph33%29.92 "Hg10 mi
6:30 pm90 °FClear.12 mph31%29.89 "Hg10 mi
6:00 pm91 °FSunny.16 mph32%29.89 "Hg10 mi
5:30 pm91 °FSunny.16 mph30%29.89 "Hg10 mi
5:00 pm91 °FSunny.12 mph30%29.89 "Hg10 mi
4:30 pm91 °FSunny.10 mph32%29.89 "Hg10 mi
4:00 pm93 °FSunny.10 mph30%29.89 "Hg10 mi
3:30 pm93 °FSunny.16 mph30%29.89 "Hg10 mi
3:00 pm91 °FSunny.12 mph32%29.89 "Hg10 mi
Weather by CustomWeather, © 2016

See weather overviewHow to use our weather pages